Location: *
(32.8140°S, 174.6161°E)
Time: 11:25:26
(UTC+00:00)

Cosmos 2297 Rocket - Pass Details

Date: 10 December 2019
Orbit: 838 x 845 km, 71.0° (Epoch: 19 January)

Event Time Altitude Azimuth Distance (km) Brightness Sun altitude
Rises 13:14:46 0° 199° (SSW) 3,424 6.1 -32.4°
Reaches altitude 10° 13:17:14 10° 196° (SSW) 2,482 5.2 -32.3°
Enters shadow 13:21:52 57° 173° (S) 988 2.7 -32.0°
